Weather History for Fremont, NE

Change the Weather History Date:

Friday, November 26, 2010

  Actual Average Record
Temperature  
Mean Temperature 34 °F -  
Max Temperature 47 °F 43 °F 70 °F (1960)
Min Temperature 21 °F 25 °F 0 °F (1993)
Degree Days  
Heating Degree Days 31    
Moisture  
Dew Point 17 °F    
Average Humidity 52    
Maximum Humidity 69    
Minimum Humidity 37    
Precipitation  
Precipitation 0.00 in - - ()
Sea Level Pressure  
Sea Level Pressure 29.99 in    
Wind  
Wind Speed 13 mph (West)    
Max Wind Speed 26 mph    
Max Gust Speed 34 mph    
Visibility 10 miles    
Events      
Averages and records for this station are not official NWS values.
T = Trace of Precipitation, MM = Missing Value Source: NWS Daily Summary

Daily Weather History Graph

Daily Weather History Graph

Search for Another Location

Airport:

Trip Planner

Search our weather history database for the weather conditions in past years. The results will help you decide how hot, cold, wet, or windy it might be!

Date:

Astronomy

Nov. 26, 2010 Rise Set
Actual Time 7:27 AM CST 4:59 PM CST
Civil Twilight 6:56 AM CST 5:29 PM CST
Nautical Twilight 6:22 AM CST 6:03 PM CST
Astronomical Twilight 5:49 AM CST 6:36 PM CST
Moon 10:10 PM CST 11:34 AM CST
Length of Visible Light 10h 32m
Length of Day
9h 31m
Waning Gibbous, 73% of the Moon is Illuminated
Nov 26
Waning Gibbous
Nov 28
Last Quarter
Dec 5
New
Dec 13
First Quarter
Dec 21
Full

Hourly Weather History & Observations

Time (CST) Temp. Windchill Dew Point Humidity Pressure Visibility Wind Dir Wind Speed Gust Speed Precip Events Conditions
12:10 AM 22.5 °F 13.2 °F 9.3 °F 57% 30.02 in 10.0 mi WSW 8.1 mph - N/A   Clear
12:30 AM 23.0 °F 13.1 °F 8.4 °F 54% 30.02 in 10.0 mi SW 9.2 mph - N/A   Clear
12:50 AM 22.3 °F 12.2 °F 8.2 °F 55% 30.01 in 10.0 mi WSW 9.2 mph - N/A   Clear
1:10 AM 23.0 °F 13.9 °F 8.8 °F 55% 30.02 in 10.0 mi WSW 8.1 mph - N/A   Clear
1:30 AM 23.7 °F 13.3 °F 8.6 °F 53% 30.01 in 10.0 mi WSW 10.4 mph - N/A   Clear
1:50 AM 24.1 °F 12.5 °F 8.1 °F 51% 30.01 in 10.0 mi WSW 12.7 mph - N/A   Clear
2:10 AM 23.0 °F 12.4 °F 9.5 °F 56% 30.00 in 10.0 mi WSW 10.4 mph - N/A   Clear
2:30 AM 22.8 °F 12.2 °F 9.1 °F 56% 29.99 in 10.0 mi WSW 10.4 mph - N/A   Clear
2:50 AM 23.0 °F 12.4 °F 9.7 °F 57% 29.99 in 10.0 mi WSW 10.4 mph - N/A   Clear
3:10 AM 22.5 °F 13.2 °F 9.5 °F 58% 29.98 in 10.0 mi WSW 8.1 mph - N/A   Clear
3:30 AM 22.3 °F 12.2 °F 10.4 °F 60% 29.98 in 10.0 mi WSW 9.2 mph - N/A   Clear
3:50 AM 21.9 °F 13.4 °F 10.8 °F 62% 29.97 in 10.0 mi WSW 6.9 mph - N/A   Clear
4:10 AM 22.8 °F 14.5 °F 10.8 °F 60% 29.96 in 10.0 mi WSW 6.9 mph - N/A   Clear
4:30 AM 23.0 °F 13.1 °F 10.9 °F 60% 29.96 in 10.0 mi WSW 9.2 mph - N/A   Clear
4:50 AM 23.7 °F 12.6 °F 11.3 °F 59% 29.96 in 10.0 mi WSW 11.5 mph - N/A   Clear
5:10 AM 23.4 °F 12.2 °F 11.1 °F 60% 29.97 in 10.0 mi West 11.5 mph - N/A   Clear
5:30 AM 25.0 °F 14.8 °F 11.8 °F 57% 29.97 in 10.0 mi West 10.4 mph - N/A   Clear
5:50 AM 25.2 °F 13.9 °F 11.7 °F 57% 29.97 in 10.0 mi West 12.7 mph - N/A   Clear
6:10 AM 25.0 °F 13.6 °F 12.0 °F 58% 29.97 in 10.0 mi West 12.7 mph - N/A   Scattered Clouds
6:30 AM 26.2 °F 14.7 °F 12.4 °F 56% 29.96 in 10.0 mi WSW 13.8 mph - N/A   Overcast
6:50 AM 25.7 °F 15.7 °F 13.1 °F 59% 29.97 in 10.0 mi West 10.4 mph - N/A   Scattered Clouds
7:10 AM 23.0 °F 13.9 °F 13.5 °F 67% 29.97 in 10.0 mi West 8.1 mph - N/A   Scattered Clouds
7:30 AM 21.7 °F 11.5 °F 13.1 °F 69% 29.98 in 10.0 mi West 9.2 mph - N/A   Scattered Clouds
7:50 AM 22.6 °F 13.4 °F 13.6 °F 68% 29.97 in 10.0 mi West 8.1 mph - N/A   Clear
8:10 AM 28.0 °F 16.5 °F 15.8 °F 60% 29.98 in 10.0 mi West 15.0 mph - N/A   Clear
8:30 AM 29.8 °F 19.3 °F 15.6 °F 56% 29.98 in 10.0 mi West 13.8 mph 23.0 mph N/A   Clear
8:50 AM 31.1 °F 21.4 °F 16.0 °F 54% 29.98 in 10.0 mi West 12.7 mph - N/A   Clear
9:10 AM 31.8 °F 21.0 °F 16.9 °F 54% 29.99 in 10.0 mi West 16.1 mph - N/A   Clear
9:30 AM 32.9 °F 21.6 °F 17.2 °F 53% 29.99 in 10.0 mi West 18.4 mph - N/A   Clear
9:50 AM 35.4 °F 24.9 °F 18.7 °F 51% 30.00 in 10.0 mi West 18.4 mph 21.9 mph N/A   Clear
10:10 AM 37.4 °F 26.9 °F 18.5 °F 46% 30.00 in 10.0 mi West 20.7 mph 26.5 mph N/A   Clear
10:30 AM 38.3 °F 27.8 °F 18.9 °F 46% 30.00 in 10.0 mi West 21.9 mph 28.8 mph N/A   Clear
10:50 AM 39.6 °F 30.0 °F 19.6 °F 45% 30.00 in 10.0 mi West 19.6 mph 26.5 mph N/A   Clear
11:10 AM 42.8 °F 33.3 °F 21.7 °F 43% 30.00 in 10.0 mi WNW 24.2 mph 29.9 mph N/A   Clear
11:30 AM 43.7 °F 34.7 °F 23.0 °F 44% 30.00 in 10.0 mi WNW 23.0 mph 32.2 mph N/A   Scattered Clouds
11:50 AM 44.1 °F 34.6 °F 23.7 °F 45% 29.99 in 10.0 mi West 26.5 mph 31.1 mph N/A   Scattered Clouds
12:10 PM 44.6 °F 36.4 °F 23.9 °F 44% 29.99 in 10.0 mi WNW 20.7 mph 28.8 mph N/A   Clear
12:30 PM 45.5 °F 37.1 °F 24.8 °F 44% 29.99 in 10.0 mi WNW 23.0 mph 33.4 mph N/A   Clear
12:50 PM 45.5 °F 36.9 °F 24.3 °F 43% 29.99 in 10.0 mi WNW 24.2 mph 34.5 mph N/A   Clear
1:10 PM 45.9 °F 37.2 °F 23.5 °F 41% 29.99 in 10.0 mi West 25.3 mph 31.1 mph N/A   Clear
1:30 PM 46.6 °F - 23.7 °F 41% 29.99 in 10.0 mi WNW 20.7 mph 28.8 mph N/A   Clear
1:50 PM 46.6 °F - 22.1 °F 38% 29.99 in 10.0 mi WNW 26.5 mph 33.4 mph N/A   Clear
2:10 PM 46.9 °F - 22.3 °F 38% 29.99 in 10.0 mi West 25.3 mph 33.4 mph N/A   Clear
2:30 PM 47.3 °F - 22.5 °F 38% 29.99 in 10.0 mi WNW 20.7 mph - N/A   Clear
2:50 PM 47.3 °F - 22.3 °F 37% 30.00 in 10.0 mi WNW 21.9 mph 31.1 mph N/A   Clear
3:10 PM 47.3 °F - 22.8 °F 38% 29.99 in 10.0 mi WNW 21.9 mph 27.6 mph N/A   Clear
3:30 PM 47.3 °F - 23.0 °F 38% 30.00 in 10.0 mi WNW 19.6 mph 26.5 mph N/A   Clear
3:50 PM 46.9 °F - 23.0 °F 39% 30.01 in 10.0 mi WNW 17.3 mph 21.9 mph N/A   Clear
4:10 PM 46.2 °F 39.5 °F 23.0 °F 40% 30.01 in 10.0 mi WNW 16.1 mph 23.0 mph N/A   Clear
4:30 PM 44.6 °F 36.9 °F 23.0 °F 43% 30.01 in 10.0 mi WNW 18.4 mph 23.0 mph N/A   Clear
4:50 PM 43.0 °F 36.4 °F 21.9 °F 43% 30.03 in 10.0 mi WNW 12.7 mph - N/A   Clear
5:10 PM 40.1 °F 33.6 °F 21.7 °F 48% 30.03 in 10.0 mi WNW 10.4 mph - N/A   Clear
5:30 PM 38.7 °F 31.8 °F 21.7 °F 51% 30.03 in 10.0 mi WNW 10.4 mph - N/A   Clear
5:50 PM 35.4 °F 30.5 °F 21.2 °F 56% 30.04 in 10.0 mi WNW 5.8 mph - N/A   Clear
6:10 PM 32.0 °F 25.6 °F 20.8 °F 63% 30.04 in 10.0 mi West 6.9 mph - N/A   Clear
6:30 PM 32.7 °F 27.3 °F 20.8 °F 62% 30.03 in 10.0 mi WNW 5.8 mph - N/A   Clear
6:50 PM 32.9 °F - 20.5 °F 60% 30.03 in 10.0 mi Calm Calm - N/A   Clear
7:10 PM 30.2 °F 25.4 °F 21.4 °F 70% 30.03 in 10.0 mi West 4.6 mph - N/A   Clear
7:30 PM 32.0 °F - 21.0 °F 64% 30.03 in 10.0 mi Calm Calm - N/A   Clear
7:50 PM 29.8 °F 26.3 °F 22.1 °F 73% 30.04 in 10.0 mi West 3.5 mph - N/A   Clear
8:10 PM 27.7 °F 21.3 °F 20.1 °F 73% 30.05 in 10.0 mi West 5.8 mph - N/A   Clear
8:30 PM 29.1 °F 23.0 °F 20.7 °F 71% 30.05 in 10.0 mi West 5.8 mph - N/A   Clear
8:50 PM 27.7 °F 22.4 °F 20.3 °F 74% 30.05 in 10.0 mi WNW 4.6 mph - N/A   Clear
9:10 PM 26.6 °F 21.2 °F 19.4 °F 74% 30.05 in 10.0 mi WNW 4.6 mph - N/A   Clear
9:30 PM 26.2 °F - 19.4 °F 75% 30.06 in 10.0 mi Calm Calm - N/A   Clear
9:50 PM 25.5 °F - 19.9 °F 79% 30.06 in 10.0 mi Calm Calm - N/A   Clear
10:10 PM 26.4 °F - 20.7 °F 79% 30.06 in 10.0 mi Calm Calm - N/A   Clear
10:30 PM 28.2 °F - 20.3 °F 72% 30.06 in 10.0 mi Calm Calm - N/A   Clear
10:50 PM 24.6 °F 20.3 °F 19.4 °F 81% 30.06 in 10.0 mi West 3.5 mph - N/A   Clear
11:10 PM 24.1 °F - 19.0 °F 81% 30.06 in 10.0 mi Calm Calm - N/A   Clear
11:30 PM 25.5 °F 21.3 °F 19.4 °F 78% 30.06 in 10.0 mi West 3.5 mph - N/A   Clear
11:50 PM 22.5 °F 15.1 °F 18.0 °F 83% 30.07 in 10.0 mi WNW 5.8 mph - N/A   Clear